sat.trackr.live / text

‹ back to catalog

O3B MPOWER F7

NORAD 62362 · 2024-244A

PAYLOAD ACTIVE UNKNOWN

§ Identity

Operator
Country
O3B
Launch date
2024-12-17
Launch site
AFETR
Launch vehicle
Mass (kg)
RCS (m²)

Purposes: comms

External: N2YO · Heavens-Above · Gunter

§ Orbital elements

Epoch: 2026-09-19T19:46:12.351648Z

Period
287.93 min
Inclination
0.0582°
Eccentricity
0.0005742
Mean motion
5.00115415 rev/d
Perigee alt
8,057.6 km
Apogee alt
8,074.2 km
Semi-major
14,444.0 km
B*
0.0000e+0
RAAN
334.4219°
Arg perigee
198.9581°
Mean anomaly
186.6299°
Rev number
3,126

§ Raw data

O3B MPOWER F71 62362U 24244A   26262.82375407 -.00000027  00000+0  00000+0 0  99972 62362   0.0582 334.4219 0005742 198.9581 186.6299  5.00115415 31266

JSON: /api/v1/satellites/62362 · /tle

For live sub-satellite position, see the globe view (requires WebGL).

§ Visibility from observer

Set your observer location to see the next 7 days of passes ≥ 10°. The values pass through the URL so the page stays shareable.

No JS? Fill the form by hand. The geolocation button needs JavaScript.